全球星 M023星 (GLOBALSTAR M023)

导读 | 星芒AI

GLOBALSTAR M023 是 Globalstar 卫星通信公司部署的一颗低轨道(LEO)移动通信卫星,属于第二代星座计划(Globalstar 2)。该卫星主要用于提供语音和数据通信服务,支持手持终端和移动设备在偏远地区的通信需求。M023 卫星采用先进的通信技术,提高了信号传输效率和系统稳定性,增强了全球覆盖能力。作为 Globalstar 卫星网络的一部分,M023 在应急通信、海事通信和远程监测等领域发挥着重要作用。

基本信息
目录编号:
25621
目录名称:
GLOBALSTAR M023
国际标识:
1999-004A
轨道中心:
EARTH
卫星名称:
全球星 M023星
卫星全名:
全球星 M023星 (GLOBALSTAR M023)
卫星状态:
在轨 (已飞行9746 天)
发射日期:
1999-02-09 UTC
国别 :
(GLOB)
星等 :
--
轨道信息
数据来源 国际轨道数据
星历时间: 2025-10-16T08:49:43+0800
9小时前
查看轨道信息
半长轴: 7790.748km
偏心率: 0.0010301
轨道倾角: 52.012°
近地点辐角 37.653°
升交点赤经 45.454°
平近点角 133.866°
近地点: 1404.587km
远地点: 1420.639km
周期: 114.059分钟
每日圈数: 12.625079
详细信息
固有亮度:
5
最大亮度:
7.9
平衡模式:
三轴稳定
覆盖范围:
全球
运营商:
全球星公司
运营商所在国:
美国
使用方式:
暂无
卫星简介
全球星星座由48颗卫星加8颗备份星组成。这些卫星分布在8个倾角为52度的圆形轨道平面上,每个轨道平面6颗卫星,另有1 颗备用星。轨道高度约为1414km,传输时延和处理时延小于300ms,整个系统的覆盖区为南北纬70度以内的地区。该卫星仍在工作。
2D轨道图
3D轨道图
轨道高度分析图
轨道倾角分析图
轨道综合分析图
查看轨道综合分析图